Tracking 29747 objects as of 9-Oct-2024
HD Live streaming from Space Station
objects crossing your sky now

BREEZE-M DEB

Track BREEZE-M DEB now!
10-day predictions


NORAD ID: 38601
Int'l Code: 2008-011AY
Perigee: 284.8 km
Apogee: 16,093.4 km
Inclination: 47.9 °
Period: 291.4 minutes
Semi major axis: 14560 km
RCS: 0.2708 m2 (medium)
Launch date: March 14, 2008
Source: Commonwealth of Independent States (former USSR) (CIS)
Launch site: TYURATAM MISSILE AND SPACE COMPLEX (TTMTR)

Note: This is SATELLITE DEBRIS
Your satellite tracking list
Your tracking list is empty




NASA's NSSDC Master Catalog

Two Line Element Set (TLE):
1 38601U 08011AY  24283.13649374  .00067032  00000-0  89132-2 0  9997
2 38601  47.9391 169.1694 5428744  82.6662 333.1226  4.94145844205362
Source of the keplerian elements: AFSPC